GOMX4-A (43197 NORAD) Tracking and Keplerian Element Data

This shows tracking and keplerian element data for the satellite.

Feedback or suggestion? Click here.




ElementValue
Catalog43197
NameGOMX4-A
Epoch Orbit2950
Epoch Day227.06497799
Epoch Year2018
RAAN354.8142
Inclination97.3546
Eccentricity0.0018403
Argument of Perigee315.2339
Mean Anonmoly131.9274
Mean Motion15.23711084
Decay Rate2.78E-06
L11 43197U 18015F 18227.06497799 .00000278 00000-0 14482-4 0 9990
L22 43197 97.3546 354.8142 0018403 315.2339 131.9274 15.23711084 29504

Live tracking and technical data element details for GOMX4-A (NORAD 43197). GOMX4-A can be tracked NOW for your location showing map with azimuth and elevation plus other details from your city location.

Track the satellite on the map from your city or location and see movement details for azimuth, elevation, latitude, longitude, range, height, and movement on the map or in text.







IsCatalogInMostPopularTable: catalog: 43197, numindb: 86
Update: records affected: 1



GetName: 43197 GOMX4-A

Hit Count: updated at: Wed, 15 Aug 2018 18:57:51 GMT